Year,Month,Day,Hour,Minute,Value (Times are PST for temperature in C)
2009,12,09,00,00,-5.30
2009,12,09,00,01,-5.30
2009,12,09,00,02,-5.30
2009,12,09,00,03,-5.30
2009,12,09,00,04,-5.30
2009,12,09,00,05,-5.30
2009,12,09,00,06,-5.30
2009,12,09,00,07,-5.30
2009,12,09,00,08,-5.30
2009,12,09,00,09,-5.30
2009,12,09,00,10,-5.30
2009,12,09,00,11,-5.30
2009,12,09,00,12,-5.30
2009,12,09,00,13,-5.30
2009,12,09,00,14,-5.30
2009,12,09,00,15,-5.30
2009,12,09,00,16,-5.20
2009,12,09,00,17,-5.20
2009,12,09,00,18,-5.20
2009,12,09,00,19,-5.20
2009,12,09,00,20,-5.20
2009,12,09,00,21,-5.10
2009,12,09,00,22,-5.10
2009,12,09,00,23,-5.10
2009,12,09,00,24,-5.10
2009,12,09,00,25,-5.10
2009,12,09,00,26,-5.00
2009,12,09,00,27,-5.00
2009,12,09,00,28,-4.90
2009,12,09,00,29,-4.90
2009,12,09,00,30,-4.80
2009,12,09,00,31,-4.80
2009,12,09,00,32,-4.90
2009,12,09,00,33,-4.90
2009,12,09,00,34,-4.90
2009,12,09,00,35,-5.00
2009,12,09,00,36,-5.00
2009,12,09,00,37,-5.10
2009,12,09,00,38,-5.20
2009,12,09,00,39,-5.30
2009,12,09,00,40,-5.30
2009,12,09,00,41,-5.30
2009,12,09,00,42,-5.30
2009,12,09,00,43,-5.30
2009,12,09,00,44,-5.40
2009,12,09,00,45,-5.40
2009,12,09,00,46,-5.40
2009,12,09,00,47,-5.40
2009,12,09,00,48,-5.40
2009,12,09,00,49,-5.40
2009,12,09,00,50,-5.50
2009,12,09,00,51,-5.50
2009,12,09,00,52,-5.50
2009,12,09,00,53,-5.50
2009,12,09,00,54,-5.50
2009,12,09,00,55,-5.50
2009,12,09,00,56,-5.50
2009,12,09,00,57,-5.50
2009,12,09,00,58,-5.50
2009,12,09,00,59,-5.50
2009,12,09,01,00,-5.50
2009,12,09,01,01,-5.50
2009,12,09,01,02,-5.50
2009,12,09,01,03,-5.50
2009,12,09,01,04,-5.50
2009,12,09,01,05,-5.50
2009,12,09,01,06,-5.40
2009,12,09,01,07,-5.40
2009,12,09,01,08,-5.40
2009,12,09,01,09,-5.40
2009,12,09,01,10,-5.40
2009,12,09,01,11,-5.40
2009,12,09,01,12,-5.40
2009,12,09,01,13,-5.40
2009,12,09,01,14,-5.40
2009,12,09,01,15,-5.40
2009,12,09,01,16,-5.40
2009,12,09,01,17,-5.40
2009,12,09,01,18,-5.40
2009,12,09,01,19,-5.40
2009,12,09,01,20,-5.50
2009,12,09,01,21,-5.50
2009,12,09,01,22,-5.50
2009,12,09,01,23,-5.60
2009,12,09,01,24,-5.60
2009,12,09,01,25,-5.60
2009,12,09,01,26,-5.60
2009,12,09,01,27,-5.60
2009,12,09,01,28,-5.60
2009,12,09,01,29,-5.60
2009,12,09,01,30,-5.60
2009,12,09,01,31,-5.60
2009,12,09,01,32,-5.60
2009,12,09,01,33,-5.60
2009,12,09,01,34,-5.60
2009,12,09,01,35,-5.60
2009,12,09,01,36,-5.60
2009,12,09,01,37,-5.60
2009,12,09,01,38,-5.50
2009,12,09,01,39,-5.50
2009,12,09,01,40,-5.50
2009,12,09,01,41,-5.50
2009,12,09,01,42,-5.50
2009,12,09,01,43,-5.50
2009,12,09,01,44,-5.50
2009,12,09,01,45,-5.50
2009,12,09,01,46,-5.40
2009,12,09,01,47,-5.40
2009,12,09,01,48,-5.40
2009,12,09,01,49,-5.40
2009,12,09,01,50,-5.50
2009,12,09,01,51,-5.50
2009,12,09,01,52,-5.50
2009,12,09,01,53,-5.50
2009,12,09,01,54,-5.50
2009,12,09,01,55,-5.50
2009,12,09,01,56,-5.50
2009,12,09,01,57,-5.50
2009,12,09,01,58,-5.50
2009,12,09,01,59,-5.60
2009,12,09,02,00,-5.60
2009,12,09,02,01,-5.60
2009,12,09,02,02,-5.60
2009,12,09,02,03,-5.60
2009,12,09,02,04,-5.70
2009,12,09,02,05,-5.70
2009,12,09,02,06,-5.70
2009,12,09,02,07,-5.80
2009,12,09,02,08,-5.80
2009,12,09,02,09,-5.90
2009,12,09,02,10,-5.90
2009,12,09,02,11,-5.90
2009,12,09,02,12,-5.90
2009,12,09,02,13,-5.90
2009,12,09,02,14,-5.90
2009,12,09,02,15,-5.90
2009,12,09,02,16,-5.80
2009,12,09,02,17,-5.80
2009,12,09,02,18,-5.70
2009,12,09,02,19,-5.70
2009,12,09,02,20,-5.60
2009,12,09,02,21,-5.60
2009,12,09,02,22,-5.60
2009,12,09,02,23,-5.60
2009,12,09,02,24,-5.50
2009,12,09,02,25,-5.50
2009,12,09,02,26,-5.50
2009,12,09,02,27,-5.40
2009,12,09,02,28,-5.40
2009,12,09,02,29,-5.40
2009,12,09,02,30,-5.40
2009,12,09,02,31,-5.30
2009,12,09,02,32,-5.30
2009,12,09,02,33,-5.30
2009,12,09,02,34,-5.30
2009,12,09,02,35,-5.30
2009,12,09,02,36,-5.30
2009,12,09,02,37,-5.30
2009,12,09,02,38,-5.30
2009,12,09,02,39,-5.30
2009,12,09,02,40,-5.40
2009,12,09,02,41,-5.40
2009,12,09,02,42,-5.40
2009,12,09,02,43,-5.40
2009,12,09,02,44,-5.50
2009,12,09,02,45,-5.50
2009,12,09,02,46,-5.50
2009,12,09,02,47,-5.60
2009,12,09,02,48,-5.60
2009,12,09,02,49,-5.70
2009,12,09,02,50,-5.70
2009,12,09,02,51,-5.80
2009,12,09,02,52,-5.80
2009,12,09,02,53,-5.90
2009,12,09,02,54,-5.90
2009,12,09,02,55,-5.90
2009,12,09,02,56,-5.90
2009,12,09,02,57,-5.90
2009,12,09,02,58,-5.90
2009,12,09,02,59,-5.80
2009,12,09,03,00,-5.80
2009,12,09,03,01,-5.80
2009,12,09,03,02,-5.70
2009,12,09,03,03,-5.70
2009,12,09,03,04,-5.70
2009,12,09,03,05,-5.70
2009,12,09,03,06,-5.60
2009,12,09,03,07,-5.60
2009,12,09,03,08,-5.60
2009,12,09,03,09,-5.50
2009,12,09,03,10,-5.50
2009,12,09,03,11,-5.50
2009,12,09,03,12,-5.50
2009,12,09,03,13,-5.50
2009,12,09,03,14,-5.60
2009,12,09,03,15,-5.60
2009,12,09,03,16,-5.60
2009,12,09,03,17,-5.60
2009,12,09,03,18,-5.60
2009,12,09,03,19,-5.60
2009,12,09,03,20,-5.60
2009,12,09,03,21,-5.60
2009,12,09,03,22,-5.60
2009,12,09,03,23,-5.60
2009,12,09,03,24,-5.60
2009,12,09,03,25,-5.70
2009,12,09,03,26,-5.70
2009,12,09,03,27,-5.70
2009,12,09,03,28,-5.70
2009,12,09,03,29,-5.70
2009,12,09,03,30,-5.70
2009,12,09,03,31,-5.60
2009,12,09,03,32,-5.60
2009,12,09,03,33,-5.60
2009,12,09,03,34,-5.60
2009,12,09,03,35,-5.60
2009,12,09,03,36,-5.60
2009,12,09,03,37,-5.60
2009,12,09,03,38,-5.70
2009,12,09,03,39,-5.70
2009,12,09,03,40,-5.70
2009,12,09,03,41,-5.70
2009,12,09,03,42,-5.70
2009,12,09,03,43,-5.70
2009,12,09,03,44,-5.70
2009,12,09,03,45,-5.70
2009,12,09,03,46,-5.70
2009,12,09,03,47,-5.70
2009,12,09,03,48,-5.70
2009,12,09,03,49,-5.70
2009,12,09,03,50,-5.70
2009,12,09,03,51,-5.70
2009,12,09,03,52,-5.70
2009,12,09,03,53,-5.70
2009,12,09,03,54,-5.70
2009,12,09,03,55,-5.70
2009,12,09,03,56,-5.80
2009,12,09,03,57,-5.80
2009,12,09,03,58,-5.80
2009,12,09,03,59,-5.80
2009,12,09,04,00,-5.80
2009,12,09,04,01,-5.70
2009,12,09,04,02,-5.70
2009,12,09,04,03,-5.70
2009,12,09,04,04,-5.70
2009,12,09,04,05,-5.70
2009,12,09,04,06,-5.80
2009,12,09,04,07,-5.80
2009,12,09,04,08,-5.80
2009,12,09,04,09,-5.80
2009,12,09,04,10,-5.80
2009,12,09,04,11,-5.80
2009,12,09,04,12,-5.80
2009,12,09,04,13,-5.80
2009,12,09,04,14,-5.90
2009,12,09,04,15,-5.80
2009,12,09,04,16,-5.80
2009,12,09,04,17,-5.80
2009,12,09,04,18,-5.80
2009,12,09,04,19,-5.80
2009,12,09,04,20,-5.80
2009,12,09,04,21,-5.90
2009,12,09,04,22,-5.90
2009,12,09,04,23,-5.80
2009,12,09,04,24,-5.80
2009,12,09,04,25,-5.80
2009,12,09,04,26,-5.80
2009,12,09,04,27,-5.80
2009,12,09,04,28,-5.80
2009,12,09,04,29,-5.80
2009,12,09,04,30,-5.80
2009,12,09,04,31,-5.70
2009,12,09,04,32,-5.70
2009,12,09,04,33,-5.70
2009,12,09,04,34,-5.70
2009,12,09,04,35,-5.70
2009,12,09,04,36,-5.70
2009,12,09,04,37,-5.70
2009,12,09,04,38,-5.70
2009,12,09,04,39,-5.70
2009,12,09,04,40,-5.70
2009,12,09,04,41,-5.70
2009,12,09,04,42,-5.80
2009,12,09,04,43,-5.80
2009,12,09,04,44,-5.80
2009,12,09,04,45,-5.90
2009,12,09,04,46,-5.90
2009,12,09,04,47,-5.90
2009,12,09,04,48,-5.90
2009,12,09,04,49,-5.90
2009,12,09,04,50,-6.00
2009,12,09,04,51,-6.10
2009,12,09,04,52,-6.10
2009,12,09,04,53,-6.10
2009,12,09,04,54,-6.10
2009,12,09,04,55,-6.10
2009,12,09,04,56,-6.10
2009,12,09,04,57,-6.20
2009,12,09,04,58,-6.20
2009,12,09,04,59,-6.10
2009,12,09,05,00,-6.10
2009,12,09,05,01,-6.10
2009,12,09,05,02,-6.00
2009,12,09,05,03,-5.90
2009,12,09,05,04,-5.90
2009,12,09,05,05,-5.90
2009,12,09,05,06,-5.80
2009,12,09,05,07,-5.80
2009,12,09,05,08,-5.70
2009,12,09,05,09,-5.60
2009,12,09,05,10,-5.60
2009,12,09,05,11,-5.60
2009,12,09,05,12,-5.60
2009,12,09,05,13,-5.60
2009,12,09,05,14,-5.60
2009,12,09,05,15,-5.60
2009,12,09,05,16,-5.60
2009,12,09,05,17,-5.60
2009,12,09,05,18,-5.70
2009,12,09,05,19,-5.70
2009,12,09,05,20,-5.70
2009,12,09,05,21,-5.70
2009,12,09,05,22,-5.80
2009,12,09,05,23,-5.80
2009,12,09,05,24,-5.80
2009,12,09,05,25,-5.90
2009,12,09,05,26,-5.90
2009,12,09,05,27,-5.90
2009,12,09,05,28,-5.90
2009,12,09,05,29,-5.90
2009,12,09,05,30,-5.90
2009,12,09,05,31,-5.90
2009,12,09,05,32,-5.90
2009,12,09,05,33,-5.90
2009,12,09,05,34,-5.80
2009,12,09,05,35,-5.80
2009,12,09,05,36,-5.80
2009,12,09,05,37,-5.70
2009,12,09,05,38,-5.70
2009,12,09,05,39,-5.70
2009,12,09,05,40,-5.60
2009,12,09,05,41,-5.60
2009,12,09,05,42,-5.60
2009,12,09,05,43,-5.50
2009,12,09,05,44,-5.50
2009,12,09,05,45,-5.40
2009,12,09,05,46,-5.40
2009,12,09,05,47,-5.40
2009,12,09,05,48,-5.40
2009,12,09,05,49,-5.30
2009,12,09,05,50,-5.30
2009,12,09,05,51,-5.30
2009,12,09,05,52,-5.30
2009,12,09,05,53,-5.30
2009,12,09,05,54,-5.20
2009,12,09,05,55,-5.20
2009,12,09,05,56,-5.20
2009,12,09,05,57,-5.20
2009,12,09,05,58,-5.30
2009,12,09,05,59,-5.30
2009,12,09,06,00,-5.30
2009,12,09,06,01,-5.30
2009,12,09,06,02,-5.30
2009,12,09,06,03,-5.30
2009,12,09,06,04,-5.30
2009,12,09,06,05,-5.30
2009,12,09,06,06,-5.30
2009,12,09,06,07,-5.20
2009,12,09,06,08,-5.20
2009,12,09,06,09,-5.20
2009,12,09,06,10,-5.10
2009,12,09,06,11,-5.20
2009,12,09,06,12,-5.20
2009,12,09,06,13,-5.20
2009,12,09,06,14,-5.30
2009,12,09,06,15,-5.30
2009,12,09,06,16,-5.30
2009,12,09,06,17,-5.30
2009,12,09,06,18,-5.30
2009,12,09,06,19,-5.30
2009,12,09,06,20,-5.30
2009,12,09,06,21,-5.30
2009,12,09,06,22,-5.30
2009,12,09,06,23,-5.30
2009,12,09,06,24,-5.30
2009,12,09,06,25,-5.30
2009,12,09,06,26,-5.30
2009,12,09,06,27,-5.20
2009,12,09,06,28,-5.20
2009,12,09,06,29,-5.20
2009,12,09,06,30,-5.10
2009,12,09,06,31,-5.10
2009,12,09,06,32,-5.10
2009,12,09,06,33,-5.10
2009,12,09,06,34,-5.00
2009,12,09,06,35,-5.00
2009,12,09,06,36,-5.00
2009,12,09,06,37,-5.00
2009,12,09,06,38,-5.00
2009,12,09,06,39,-5.00
2009,12,09,06,40,-5.00
2009,12,09,06,41,-5.00
2009,12,09,06,42,-5.00
2009,12,09,06,43,-5.00
2009,12,09,06,44,-5.00
2009,12,09,06,45,-4.90
2009,12,09,06,46,-4.90
2009,12,09,06,47,-4.90
2009,12,09,06,48,-5.00
2009,12,09,06,49,-5.00
2009,12,09,06,50,-5.00
2009,12,09,06,51,-5.00
2009,12,09,06,52,-5.00
2009,12,09,06,53,-4.90
2009,12,09,06,54,-4.90
2009,12,09,06,55,-4.90
2009,12,09,06,56,-4.90
2009,12,09,06,57,-4.90
2009,12,09,06,58,-5.00
2009,12,09,06,59,-5.00
2009,12,09,07,00,-5.10
2009,12,09,07,01,-5.10
2009,12,09,07,02,-5.10
2009,12,09,07,03,-5.10
2009,12,09,07,04,-5.20
2009,12,09,07,05,-5.20
2009,12,09,07,06,-5.30
2009,12,09,07,07,-5.30
2009,12,09,07,08,-5.40
2009,12,09,07,09,-5.50
2009,12,09,07,10,-5.50
2009,12,09,07,11,-5.60
2009,12,09,07,12,-5.60
2009,12,09,07,13,-5.60
2009,12,09,07,14,-5.60
2009,12,09,07,15,-5.60
2009,12,09,07,16,-5.60
2009,12,09,07,17,-5.50
2009,12,09,07,18,-5.50
2009,12,09,07,19,-5.50
2009,12,09,07,20,-5.50
2009,12,09,07,21,-5.60
2009,12,09,07,22,-5.60
2009,12,09,07,23,-5.60
2009,12,09,07,24,-5.70
2009,12,09,07,25,-5.70
2009,12,09,07,26,-5.60
2009,12,09,07,27,-5.60
2009,12,09,07,28,-5.50
2009,12,09,07,29,-5.40
2009,12,09,07,30,-5.40
2009,12,09,07,31,-5.30
2009,12,09,07,32,-5.30
2009,12,09,07,33,-5.30
2009,12,09,07,34,-5.30
2009,12,09,07,35,-5.30
2009,12,09,07,36,-5.30
2009,12,09,07,37,-5.20
2009,12,09,07,38,-5.20
2009,12,09,07,39,-5.20
2009,12,09,07,40,-5.20
2009,12,09,07,41,-5.20
2009,12,09,07,42,-5.20
2009,12,09,07,43,-5.20
2009,12,09,07,44,-5.20
2009,12,09,07,45,-5.30
2009,12,09,07,46,-5.30
2009,12,09,07,47,-5.30
2009,12,09,07,48,-5.30
2009,12,09,07,49,-5.30
2009,12,09,07,50,-5.30
2009,12,09,07,51,-5.30
2009,12,09,07,52,-5.30
2009,12,09,07,53,-5.30
2009,12,09,07,54,-5.30
2009,12,09,07,55,-5.30
2009,12,09,07,56,-5.20
2009,12,09,07,57,-5.20
2009,12,09,07,58,-5.20
2009,12,09,07,59,-5.20
2009,12,09,08,00,-5.20
2009,12,09,08,01,-5.10
2009,12,09,08,02,-5.10
2009,12,09,08,03,-5.10
2009,12,09,08,04,-5.10
2009,12,09,08,05,-5.10
2009,12,09,08,06,-5.10
2009,12,09,08,07,-5.10
2009,12,09,08,08,-5.00
2009,12,09,08,09,-5.00
2009,12,09,08,10,-5.00
2009,12,09,08,11,-5.00
2009,12,09,08,12,-4.90
2009,12,09,08,13,-4.90
2009,12,09,08,14,-4.90
2009,12,09,08,15,-4.90
2009,12,09,08,16,-4.90
2009,12,09,08,17,-5.00
2009,12,09,08,18,-5.00
2009,12,09,08,19,-4.90
2009,12,09,08,20,-4.90
2009,12,09,08,21,-4.90
2009,12,09,08,22,-4.90
2009,12,09,08,23,-4.90
2009,12,09,08,24,-4.80
2009,12,09,08,25,-4.70
2009,12,09,08,26,-4.70
2009,12,09,08,27,-4.70
2009,12,09,08,28,-4.70
2009,12,09,08,29,-4.70
2009,12,09,08,30,-4.70
2009,12,09,08,31,-4.70
2009,12,09,08,32,-4.70
2009,12,09,08,33,-4.70
2009,12,09,08,34,-4.70
2009,12,09,08,35,-4.70
2009,12,09,08,36,-4.70
2009,12,09,08,37,-4.70
2009,12,09,08,38,-4.70
2009,12,09,08,39,-4.70
2009,12,09,08,40,-4.70
2009,12,09,08,41,-4.70
2009,12,09,08,42,-4.70
2009,12,09,08,43,-4.70
2009,12,09,08,44,-4.70
2009,12,09,08,45,-4.80
2009,12,09,08,46,-4.70
2009,12,09,08,47,-4.70
2009,12,09,08,48,-4.70
2009,12,09,08,49,-4.70
2009,12,09,08,50,-4.70
2009,12,09,08,51,-4.70
2009,12,09,08,52,-4.60
2009,12,09,08,53,-4.60
2009,12,09,08,54,-4.60
2009,12,09,08,55,-4.50
2009,12,09,08,56,-4.50
2009,12,09,08,57,-4.40
2009,12,09,08,58,-4.40
2009,12,09,08,59,-4.30
2009,12,09,09,00,-4.30
2009,12,09,09,01,-4.30
2009,12,09,09,02,-4.30
2009,12,09,09,03,-4.20
2009,12,09,09,04,-4.20
2009,12,09,09,05,-4.20
2009,12,09,09,06,-4.20
2009,12,09,09,07,-4.10
2009,12,09,09,08,-4.10
2009,12,09,09,09,-4.10
2009,12,09,09,10,-4.00
2009,12,09,09,11,-4.00
2009,12,09,09,12,-4.00
2009,12,09,09,13,-3.90
2009,12,09,09,14,-3.90
2009,12,09,09,15,-3.80
2009,12,09,09,16,-3.80
2009,12,09,09,17,-3.70
2009,12,09,09,18,-3.70
2009,12,09,09,19,-3.70
2009,12,09,09,20,-3.70
2009,12,09,09,21,-3.60
2009,12,09,09,22,-3.60
2009,12,09,09,23,-3.50
2009,12,09,09,24,-3.50
2009,12,09,09,25,-3.50
2009,12,09,09,26,-3.40
2009,12,09,09,27,-3.40
2009,12,09,09,28,-3.30
2009,12,09,09,29,-3.30
2009,12,09,09,30,-3.30
2009,12,09,09,31,-3.30
2009,12,09,09,32,-3.30
2009,12,09,09,33,-3.20
2009,12,09,09,34,-3.20
2009,12,09,09,35,-3.20
2009,12,09,09,36,-3.10
2009,12,09,09,37,-3.10
2009,12,09,09,38,-3.10
2009,12,09,09,39,-3.00
2009,12,09,09,40,-3.00
2009,12,09,09,41,-2.90
2009,12,09,09,42,-2.90
2009,12,09,09,43,-2.80
2009,12,09,09,44,-2.80
2009,12,09,09,45,-2.80
2009,12,09,09,46,-2.80
2009,12,09,09,47,-2.80
2009,12,09,09,48,-2.70
2009,12,09,09,49,-2.70
2009,12,09,09,50,-2.70
2009,12,09,09,51,-2.60
2009,12,09,09,52,-2.60
2009,12,09,09,53,-2.60
2009,12,09,09,54,-2.50
2009,12,09,09,55,-2.50
2009,12,09,09,56,-2.50
2009,12,09,09,57,-2.40
2009,12,09,09,58,-2.40
2009,12,09,09,59,-2.30
2009,12,09,10,00,-2.30
2009,12,09,10,01,-2.30
2009,12,09,10,02,-2.30
2009,12,09,10,03,-2.30
2009,12,09,10,04,-2.20
2009,12,09,10,05,-2.20
2009,12,09,10,06,-2.20
2009,12,09,10,07,-2.10
2009,12,09,10,08,-2.10
2009,12,09,10,09,-2.10
2009,12,09,10,10,-2.10
2009,12,09,10,11,-2.00
2009,12,09,10,12,-2.00
2009,12,09,10,13,-1.90
2009,12,09,10,14,-1.90
2009,12,09,10,15,-1.80
2009,12,09,10,16,-1.80
2009,12,09,10,17,-1.80
2009,12,09,10,18,-1.70
2009,12,09,10,19,-1.70
2009,12,09,10,20,-1.60
2009,12,09,10,21,-1.50
2009,12,09,10,22,-1.50
2009,12,09,10,23,-1.50
2009,12,09,10,24,-1.40
2009,12,09,10,25,-1.40
2009,12,09,10,26,-1.40
2009,12,09,10,27,-1.30
2009,12,09,10,28,-1.20
2009,12,09,10,29,-1.20
2009,12,09,10,30,-1.10
2009,12,09,10,31,-1.10
2009,12,09,10,32,-1.00
2009,12,09,10,33,-0.90
2009,12,09,10,34,-0.90
2009,12,09,10,35,-0.80
2009,12,09,10,36,-0.70
2009,12,09,10,37,-0.70
2009,12,09,10,38,-0.60
2009,12,09,10,39,-0.60
2009,12,09,10,40,-0.50
2009,12,09,10,41,-0.40
2009,12,09,10,42,-0.40
2009,12,09,10,43,-0.40
2009,12,09,10,44,-0.30
2009,12,09,10,45,-0.30
2009,12,09,10,46,-0.20
2009,12,09,10,47,-0.20
2009,12,09,10,48,-0.10
2009,12,09,10,49,-0.10
2009,12,09,10,50,-0.10
2009,12,09,10,51,0.00
2009,12,09,10,52,0.10
2009,12,09,10,53,0.10
2009,12,09,10,54,0.20
2009,12,09,10,55,0.30
2009,12,09,10,56,0.40
2009,12,09,10,57,0.40
2009,12,09,10,58,0.50
2009,12,09,10,59,0.60
2009,12,09,11,00,0.70
2009,12,09,11,01,0.80
2009,12,09,11,02,0.80
2009,12,09,11,03,0.90
2009,12,09,11,04,1.00
2009,12,09,11,05,1.00
2009,12,09,11,06,1.00
2009,12,09,11,07,1.00
2009,12,09,11,08,1.00
2009,12,09,11,09,1.00
2009,12,09,11,10,1.10
2009,12,09,11,11,1.10
2009,12,09,11,12,1.10
2009,12,09,11,13,1.00
2009,12,09,11,14,1.00
2009,12,09,11,15,1.00
2009,12,09,11,16,1.00
2009,12,09,11,17,1.00
2009,12,09,11,18,1.00
2009,12,09,11,19,1.00
2009,12,09,11,20,1.00
2009,12,09,11,21,1.00
2009,12,09,11,22,1.00
2009,12,09,11,23,1.00
2009,12,09,11,24,1.10
2009,12,09,11,25,1.10
2009,12,09,11,26,1.10
2009,12,09,11,27,1.10
2009,12,09,11,28,1.10
2009,12,09,11,29,1.10
2009,12,09,11,30,1.10
2009,12,09,11,31,1.10
2009,12,09,11,32,1.10
2009,12,09,11,33,1.20
2009,12,09,11,34,1.20
2009,12,09,11,35,1.20
2009,12,09,11,36,1.20
2009,12,09,11,37,1.20
2009,12,09,11,38,1.20
2009,12,09,11,39,1.20
2009,12,09,11,40,1.30
2009,12,09,11,41,1.30
2009,12,09,11,42,1.40
2009,12,09,11,43,1.40
2009,12,09,11,44,1.40
2009,12,09,11,45,1.30
2009,12,09,11,46,1.30
2009,12,09,11,47,1.30
2009,12,09,11,48,1.30
2009,12,09,11,49,1.20
2009,12,09,11,50,1.20
2009,12,09,11,51,1.20
2009,12,09,11,52,1.10
2009,12,09,11,53,1.10
2009,12,09,11,54,1.20
2009,12,09,11,55,1.20
2009,12,09,11,56,1.30
2009,12,09,11,57,1.30
2009,12,09,11,58,1.30
2009,12,09,11,59,1.40
2009,12,09,12,00,1.40
2009,12,09,12,01,1.50
2009,12,09,12,02,1.50
2009,12,09,12,03,1.50
2009,12,09,12,04,1.50
2009,12,09,12,05,1.60
2009,12,09,12,06,1.60
2009,12,09,12,07,1.60
2009,12,09,12,08,1.60
2009,12,09,12,09,1.60
2009,12,09,12,10,1.60
2009,12,09,12,11,1.50
2009,12,09,12,12,1.40
2009,12,09,12,13,1.30
2009,12,09,12,14,1.30
2009,12,09,12,15,1.20
2009,12,09,12,16,1.10
2009,12,09,12,17,1.10
2009,12,09,12,18,1.00
2009,12,09,12,19,1.00
2009,12,09,12,20,1.00
2009,12,09,12,21,1.00
2009,12,09,12,22,1.00
2009,12,09,12,23,1.00
2009,12,09,12,24,1.00
2009,12,09,12,25,1.10
2009,12,09,12,26,1.20
2009,12,09,12,27,1.30
2009,12,09,12,28,1.30
2009,12,09,12,29,1.30
2009,12,09,12,30,1.30
2009,12,09,12,31,1.30
2009,12,09,12,32,1.20
2009,12,09,12,33,1.20
2009,12,09,12,34,1.20
2009,12,09,12,35,1.30
2009,12,09,12,36,1.30
2009,12,09,12,37,1.40
2009,12,09,12,38,1.50
2009,12,09,12,39,1.70
2009,12,09,12,40,1.90
2009,12,09,12,41,2.00
2009,12,09,12,42,2.10
2009,12,09,12,43,2.20
2009,12,09,12,44,2.20
2009,12,09,12,45,2.20
2009,12,09,12,46,2.10
2009,12,09,12,47,2.10
2009,12,09,12,48,2.10
2009,12,09,12,49,2.10
2009,12,09,12,50,2.10
2009,12,09,12,51,2.00
2009,12,09,12,52,2.00
2009,12,09,12,53,2.00
2009,12,09,12,54,1.90
2009,12,09,12,55,1.90
2009,12,09,12,56,1.90
2009,12,09,12,57,1.90
2009,12,09,12,58,1.90
2009,12,09,12,59,1.90
2009,12,09,13,00,1.80
2009,12,09,13,01,1.80
2009,12,09,13,02,1.90
2009,12,09,13,03,1.80
2009,12,09,13,04,1.80
2009,12,09,13,05,1.80
2009,12,09,13,06,1.80
2009,12,09,13,07,1.80
2009,12,09,13,08,1.80
2009,12,09,13,09,1.80
2009,12,09,13,10,1.80
2009,12,09,13,11,1.90
2009,12,09,13,12,1.90
2009,12,09,13,13,1.90
2009,12,09,13,14,1.80
2009,12,09,13,15,1.80
2009,12,09,13,16,1.80
2009,12,09,13,17,1.80
2009,12,09,13,18,1.80
2009,12,09,13,19,1.80
2009,12,09,13,20,1.70
2009,12,09,13,21,1.70
2009,12,09,13,22,1.70
2009,12,09,13,23,1.70
2009,12,09,13,24,1.70
2009,12,09,13,25,1.60
2009,12,09,13,26,1.60
2009,12,09,13,27,1.60
2009,12,09,13,28,1.60
2009,12,09,13,29,1.60
2009,12,09,13,30,1.60
2009,12,09,13,31,1.50
2009,12,09,13,32,1.50
2009,12,09,13,33,1.60
2009,12,09,13,34,1.60
2009,12,09,13,35,1.50
2009,12,09,13,36,1.50
2009,12,09,13,37,1.50
2009,12,09,13,38,1.50
2009,12,09,13,39,1.50
2009,12,09,13,40,1.40
2009,12,09,13,41,1.40
2009,12,09,13,42,1.50
2009,12,09,13,43,1.60
2009,12,09,13,44,1.60
2009,12,09,13,45,1.70
2009,12,09,13,46,1.80
2009,12,09,13,47,1.80
2009,12,09,13,48,1.80
2009,12,09,13,49,1.80
2009,12,09,13,50,1.70
2009,12,09,13,51,1.60
2009,12,09,13,52,1.50
2009,12,09,13,53,1.40
2009,12,09,13,54,1.40
2009,12,09,13,55,1.30
2009,12,09,13,56,1.40
2009,12,09,13,57,1.40
2009,12,09,13,58,1.40
2009,12,09,13,59,1.40
2009,12,09,14,00,1.40
2009,12,09,14,01,1.40
2009,12,09,14,02,1.40
2009,12,09,14,03,1.40
2009,12,09,14,04,1.50
2009,12,09,14,05,1.50
2009,12,09,14,06,1.50
2009,12,09,14,07,1.50
2009,12,09,14,08,1.50
2009,12,09,14,09,1.50
2009,12,09,14,10,1.50
2009,12,09,14,11,1.50
2009,12,09,14,12,1.50
2009,12,09,14,13,1.50
2009,12,09,14,14,1.50
2009,12,09,14,15,1.50
2009,12,09,14,16,1.60
2009,12,09,14,17,1.70
2009,12,09,14,18,1.70
2009,12,09,14,19,1.60
2009,12,09,14,20,1.60
2009,12,09,14,21,1.60
2009,12,09,14,22,1.50
2009,12,09,14,23,1.50
2009,12,09,14,24,1.60
2009,12,09,14,25,1.70
2009,12,09,14,26,1.80
2009,12,09,14,27,1.70
2009,12,09,14,28,1.70
2009,12,09,14,29,1.60
2009,12,09,14,30,1.60
2009,12,09,14,31,1.50
2009,12,09,14,32,1.50
2009,12,09,14,33,1.50
2009,12,09,14,34,1.50
2009,12,09,14,35,1.40
2009,12,09,14,36,1.40
2009,12,09,14,37,1.40
2009,12,09,14,38,1.40
2009,12,09,14,39,1.40
2009,12,09,14,40,1.50
2009,12,09,14,41,1.60
2009,12,09,14,42,1.50
2009,12,09,14,43,1.50
2009,12,09,14,44,1.50
2009,12,09,14,45,1.50
2009,12,09,14,46,1.50
2009,12,09,14,47,1.60
2009,12,09,14,48,1.60
2009,12,09,14,49,1.50
2009,12,09,14,50,1.50
2009,12,09,14,51,1.50
2009,12,09,14,52,1.50
2009,12,09,14,53,1.40
2009,12,09,14,54,1.50
2009,12,09,14,55,1.50
2009,12,09,14,56,1.50
2009,12,09,14,57,1.40
2009,12,09,14,58,1.30
2009,12,09,14,59,1.30
2009,12,09,15,00,1.30
2009,12,09,15,01,1.30
2009,12,09,15,02,1.30
2009,12,09,15,03,1.30
2009,12,09,15,04,1.30
2009,12,09,15,05,1.30
2009,12,09,15,06,1.30
2009,12,09,15,07,1.40
2009,12,09,15,08,1.40
2009,12,09,15,09,1.40
2009,12,09,15,10,1.40
2009,12,09,15,11,1.40
2009,12,09,15,12,1.30
2009,12,09,15,13,1.30
2009,12,09,15,14,1.30
2009,12,09,15,15,1.30
2009,12,09,15,16,1.20
2009,12,09,15,17,1.10
2009,12,09,15,18,1.00
2009,12,09,15,19,1.00
2009,12,09,15,20,1.00
2009,12,09,15,21,0.90
2009,12,09,15,22,0.90
2009,12,09,15,23,0.90
2009,12,09,15,24,0.90
2009,12,09,15,25,0.90
2009,12,09,15,26,0.90
2009,12,09,15,27,0.90
2009,12,09,15,28,0.80
2009,12,09,15,29,0.80
2009,12,09,15,30,0.80
2009,12,09,15,31,0.80
2009,12,09,15,32,0.80
2009,12,09,15,33,0.80
2009,12,09,15,34,0.80
2009,12,09,15,35,0.80
2009,12,09,15,36,0.80
2009,12,09,15,37,0.80
2009,12,09,15,38,0.80
2009,12,09,15,39,0.80
2009,12,09,15,40,0.70
2009,12,09,15,41,0.70
2009,12,09,15,42,0.70
2009,12,09,15,43,0.60
2009,12,09,15,44,0.50
2009,12,09,15,45,0.50
2009,12,09,15,46,0.50
2009,12,09,15,47,0.50
2009,12,09,15,48,0.40
2009,12,09,15,49,0.40
2009,12,09,15,50,0.40
2009,12,09,15,51,0.40
2009,12,09,15,52,0.40
2009,12,09,15,53,0.40
2009,12,09,15,54,0.30
2009,12,09,15,55,0.30
2009,12,09,15,56,0.30
2009,12,09,15,57,0.30
2009,12,09,15,58,0.30
2009,12,09,15,59,0.30
2009,12,09,16,00,0.30
2009,12,09,16,01,0.30
2009,12,09,16,02,0.20
2009,12,09,16,03,0.20
2009,12,09,16,04,0.20
2009,12,09,16,05,0.20
2009,12,09,16,06,0.20
2009,12,09,16,07,0.20
2009,12,09,16,08,0.20
2009,12,09,16,09,0.10
2009,12,09,16,10,0.10
2009,12,09,16,11,0.10
2009,12,09,16,12,0.10
2009,12,09,16,13,0.10
2009,12,09,16,14,0.10
2009,12,09,16,15,0.10
2009,12,09,16,16,0.10
2009,12,09,16,17,0.10
2009,12,09,16,18,0.00
2009,12,09,16,19,-0.10
2009,12,09,16,20,-0.10
2009,12,09,16,21,-0.10
2009,12,09,16,22,-0.10
2009,12,09,16,23,-0.10
2009,12,09,16,24,-0.10
2009,12,09,16,25,-0.10
2009,12,09,16,26,-0.10
2009,12,09,16,27,-0.10
2009,12,09,16,28,-0.10
2009,12,09,16,29,-0.20
2009,12,09,16,30,-0.20
2009,12,09,16,31,-0.20
2009,12,09,16,32,-0.30
2009,12,09,16,33,-0.30
2009,12,09,16,34,-0.30
2009,12,09,16,35,-0.40
2009,12,09,16,36,-0.40
2009,12,09,16,37,-0.40
2009,12,09,16,38,-0.40
2009,12,09,16,39,-0.40
2009,12,09,16,40,-0.40
2009,12,09,16,41,-0.50
2009,12,09,16,42,-0.60
2009,12,09,16,43,-0.60
2009,12,09,16,44,-0.60
2009,12,09,16,45,-0.60
2009,12,09,16,46,-0.60
2009,12,09,16,47,-0.60
2009,12,09,16,48,-0.60
2009,12,09,16,49,-0.70
2009,12,09,16,50,-0.70
2009,12,09,16,51,-0.80
2009,12,09,16,52,-0.80
2009,12,09,16,53,-0.90
2009,12,09,16,54,-0.90
2009,12,09,16,55,-0.90
2009,12,09,16,56,-0.90
2009,12,09,16,57,-1.00
2009,12,09,16,58,-1.10
2009,12,09,16,59,-1.10
2009,12,09,17,00,-1.10
2009,12,09,17,01,-1.10
2009,12,09,17,02,-1.10
2009,12,09,17,03,-1.20
2009,12,09,17,04,-1.20
2009,12,09,17,05,-1.20
2009,12,09,17,06,-1.30
2009,12,09,17,07,-1.30
2009,12,09,17,08,-1.40
2009,12,09,17,09,-1.40
2009,12,09,17,10,-1.40
2009,12,09,17,11,-1.40
2009,12,09,17,12,-1.50
2009,12,09,17,13,-1.50
2009,12,09,17,14,-1.60
2009,12,09,17,15,-1.60
2009,12,09,17,16,-1.70
2009,12,09,17,17,-1.70
2009,12,09,17,18,-1.70
2009,12,09,17,19,-1.80
2009,12,09,17,20,-1.80
2009,12,09,17,21,-1.80
2009,12,09,17,22,-1.80
2009,12,09,17,23,-1.80
2009,12,09,17,24,-1.90
2009,12,09,17,25,-1.90
2009,12,09,17,26,-1.90
2009,12,09,17,27,-2.00
2009,12,09,17,28,-2.00
2009,12,09,17,29,-2.00
2009,12,09,17,30,-2.00
2009,12,09,17,31,-2.10
2009,12,09,17,32,-2.10
2009,12,09,17,33,-2.10